IV3ONZ Weather Reports


time (UTC)temp
F
wind
direction
speed
knots
gust
knots
rain 1hr
in
rain 24hr
in
rain mn
in
humidity
%
barometer
mb
20260507001503 61 151 3.5 7.8 0.00 0.64 0.00 86 1014.3
20260507001003 61 162 3.5 7.8 0.00 0.64 0.00 86 1014.1
20260507000505 61 149 4.3 11.3 0.00 0.64 0.00 86 1014.1
20260507000008 61 143 5.2 11.3 0.00 0.64 0.00 85 1014.3
20260506235503 61 146 4.3 8.7 0.00 0.64 0.64 86 1014.2
20260506235003 61 146 4.3 8.7 0.00 0.64 0.64 86 1014.3
20260506234713 61 146 3.5 8.7 0.00 0.64 0.64 86 1014.3
20260506234003 60 145 3.5 6.1 0.00 0.64 0.64 87 1014.5
20260506233503 60 136 3.5 6.1 0.00 0.64 0.64 87 1014.4
20260506233003 60 126 3.5 6.1 0.00 0.64 0.64 87 1014.3
20260506232503 60 133 3.5 6.1 0.00 0.64 0.64 87 1014.5
20260506232003 60 129 2.6 5.2 0.00 0.64 0.64 87 1014.5
20260506231503 60 124 2.6 5.2 0.00 0.64 0.64 87 1014.4
20260506231003 60 134 2.6 5.2 0.00 0.64 0.64 87 1014.6
20260506230503 60 134 2.6 5.2 0.00 0.64 0.64 87 1014.7
20260506230006 59 135 2.6 6.1 0.00 0.64 0.64 87 1014.6
20260506225504 59 135 2.6 6.1 0.00 0.64 0.64 87 1014.7
20260506225003 59 130 3.5 7.0 0.00 0.64 0.64 87 1014.6
20260506224503 59 132 3.5 7.0 0.00 0.64 0.64 87 1014.5
20260506224003 59 135 3.5 6.1 0.00 0.64 0.64 87 1014.7
20260506223503 59 133 3.5 6.1 0.00 0.64 0.64 87 1014.8
20260506223004 59 129 2.6 5.2 0.00 0.64 0.64 87 1014.4
20260506222715 59 130 2.6 5.2 0.00 0.64 0.64 87 1014.7
20260506222003 58 127 2.6 3.5 0.00 0.64 0.64 87 1014.5
20260506221504 59 125 2.6 5.2 0.00 0.64 0.64 87 1014.5
20260506221003 59 126 2.6 5.2 0.00 0.64 0.64 86 1014.7
20260506220503 59 137 1.7 3.5 0.00 0.64 0.64 86 1014.6
20260506220004 59 131 2.6 6.1 0.00 0.64 0.64 86 1014.4
20260506215503 59 119 3.5 6.1 0.00 0.64 0.64 86 1014.3
20260506215216 59 118 3.5 6.1 0.00 0.64 0.64 86 1014.5
20260506214503 59 128 2.6 5.2 0.00 0.64 0.64 86 1014.4
20260506214003 60 140 2.6 6.1 0.00 0.64 0.64 85 1014.5
20260506213504 60 148 3.5 7.0 0.00 0.64 0.64 83 1014.3
20260506213213 60 155 4.3 7.0 0.00 0.64 0.64 83 1014.4
20260506212503 60 159 3.5 7.0 0.00 0.64 0.64 83 1014.3
20260506212003 60 152 3.5 7.0 0.00 0.64 0.64 83 1014.3
20260506211506 60 146 3.5 7.0 0.00 0.64 0.64 83 1014.2
20260506211004 60 142 4.3 7.0 0.00 0.64 0.64 83 1014.2
20260506210503 60 149 4.3 9.6 0.00 0.64 0.64 83 1014.4
20260506210004 61 156 4.3 9.6 0.00 0.64 0.64 83 1014.5
20260506205503 61 174 4.3 9.6 0.00 0.64 0.64 83 1014.4
20260506205004 61 178 4.3 8.7 0.00 0.64 0.64 81 1014.4
20260506204503 61 169 4.3 11.3 0.00 0.64 0.64 81 1014.6
20260506204004 61 157 4.3 11.3 0.00 0.64 0.64 81 1014.4
20260506203716 61 157 4.3 11.3 0.00 0.64 0.64 81 1014.5
20260506203003 61 165 3.5 7.0 0.00 0.64 0.64 81 1014.4
20260506202503 61 166 3.5 8.7 0.00 0.64 0.64 81 1014.3
20260506202215 61 161 4.3 8.7 0.00 0.64 0.64 81 1014.2
20260506201504 60 140 3.5 7.8 0.00 0.64 0.64 83 1014.2
20260506201003 60 131 2.6 6.1 0.00 0.64 0.64 89 1014.3
20260506200505 60 143 3.5 12.2 0.00 0.64 0.64 90 1014.4
20260506200005 61 154 4.3 12.2 0.00 0.64 0.64 87 1014.3
20260506195503 60 152 3.5 12.2 0.00 0.65 0.64 86 1014.3
20260506195003 61 142 2.6 6.1 0.00 0.65 0.64 88 1014.2
20260506194504 61 139 3.5 6.1 0.00 0.66 0.64 88 1014.0
20260506194003 61 141 3.5 8.7 0.00 0.66 0.64 88 1014.2
20260506193503 61 142 4.3 8.7 0.00 0.66 0.64 88 1014.0
20260506193003 61 146 3.5 8.7 0.00 0.66 0.64 87 1014.0
20260506192717 61 159 3.5 8.7 0.00 0.66 0.64 88 1013.9
20260506192004 61 169 5.2 13.0 0.00 0.66 0.64 87 1014.0
20260506191504 62 166 5.2 13.0 0.00 0.66 0.64 87 1013.9
20260506191003 62 166 4.3 11.3 0.00 0.66 0.64 87 1013.7
20260506190503 62 162 4.3 8.7 0.00 0.66 0.64 87 1013.6
20260506190005 62 161 4.3 8.7 0.00 0.66 0.64 87 1013.5
20260506185504 62 161 4.3 8.7 0.00 0.66 0.64 87 1013.1
20260506185003 62 161 4.3 8.7 0.00 0.66 0.64 87 1013.1
20260506184503 62 166 4.3 8.7 0.00 0.66 0.64 87 1012.9
20260506184003 62 168 3.5 7.8 0.00 0.66 0.64 87 1013.2
20260506183503 62 155 3.5 7.0 0.00 0.66 0.64 87 1013.2
20260506183004 62 152 3.5 7.0 0.00 0.66 0.64 87 1013.0
20260506182503 62 161 3.5 7.0 0.00 0.66 0.64 87 1013.2
20260506182003 63 169 3.5 7.0 0.00 0.66 0.64 87 1012.9
20260506181503 63 170 3.5 7.8 0.00 0.66 0.64 87 1013.0
20260506181004 62 167 3.5 7.8 0.00 0.66 0.64 88 1013.2
20260506180504 62 162 2.6 6.1 0.00 0.66 0.64 90 1013.1
20260506180005 62 156 2.6 5.2 0.00 0.66 0.64 91 1013.2
20260506175504 62 157 2.6 5.2 0.00 0.66 0.64 91 1012.9
20260506175003 62 156 1.7 3.5 0.00 0.66 0.64 91 1013.0
20260506174503 62 152 1.7 3.5 0.00 0.66 0.64 92 1012.8
20260506174003 62 151 1.7 3.5 0.00 0.66 0.64 92 1012.9
20260506173713 62 153 1.7 3.5 0.01 0.66 0.64 92 1012.9
20260506173004 62 161 1.7 5.2 0.06 0.66 0.64 92 1012.8
20260506172503 62 163 1.7 5.2 0.06 0.66 0.64 92 1012.7
20260506172004 62 176 2.6 8.7 0.06 0.66 0.64 92 1012.7
20260506171714 62 186 3.5 8.7 0.06 0.66 0.64 92 1012.8
20260506171003 62 198 5.2 11.3 0.06 0.66 0.64 92 1012.6
20260506170503 62 201 5.2 11.3 0.06 0.66 0.64 92 1012.6
20260506170006 62 208 4.3 11.3 0.06 0.66 0.64 91 1012.8
20260506165504 62 212 3.5 9.6 0.06 0.66 0.64 91 1012.6
20260506165004 62 207 3.5 9.6 0.06 0.66 0.64 91 1012.8
20260506164503 63 205 3.5 9.6 0.06 0.66 0.64 91 1012.4
20260506164003 63 214 5.2 9.6 0.06 0.66 0.64 90 1012.5
20260506163503 63 179 6.1 9.6 0.04 0.64 0.62 87 1012.6
20260506163216 64 154 5.2 9.6 0.01 0.61 0.61 85 1012.2
20260506162503 65 150 3.5 7.0 0.00 0.60 0.59 82 1012.4
20260506162003 65 140 4.3 7.8 0.00 0.60 0.59 82 1012.5
20260506161715 65 138 4.3 7.8 0.00 0.60 0.59 82 1012.5
20260506161003 65 142 4.3 7.8 0.00 0.60 0.59 82 1012.4
20260506160503 65 146 4.3 7.8 0.00 0.60 0.59 82 1012.5
20260506160214 65 144 4.3 7.8 0.00 0.60 0.59 82 1012.3
20260506155717 65 144 3.5 7.8 0.00 0.60 0.59 82 1012.6
20260506155004 65 141 3.5 7.0 0.00 0.60 0.59 82 1012.6
20260506154503 65 147 3.5 7.8 0.00 0.60 0.59 82 1012.8
20260506154003 65 156 4.3 8.7 0.00 0.60 0.59 82 1012.8
20260506153504 65 148 4.3 8.7 0.00 0.60 0.59 82 1013.0
20260506153003 65 144 4.3 9.6 0.00 0.60 0.59 82 1013.0
20260506152503 65 137 5.2 9.6 0.00 0.60 0.59 82 1012.8
20260506152213 65 135 5.2 9.6 0.00 0.60 0.59 82 1012.8
20260506151503 65 143 5.2 8.7 0.00 0.60 0.59 82 1013.0
20260506151214 65 146 4.3 8.7 0.00 0.60 0.59 82 1013.1
20260506150503 65 150 3.5 7.0 0.00 0.60 0.59 83 1013.2
20260506150004 64 156 4.3 8.7 0.00 0.60 0.59 83 1013.3
20260506145503 64 157 4.3 8.7 0.00 0.60 0.59 83 1013.2
20260506145003 65 144 4.3 8.7 0.00 0.60 0.59 83 1013.5
20260506144503 65 134 4.3 7.0 0.00 0.61 0.59 84 1013.4
20260506144003 65 125 4.3 7.0 0.00 0.62 0.59 83 1013.4
20260506143504 65 119 4.3 7.8 0.00 0.62 0.59 84 1013.4
20260506143003 64 129 3.5 7.8 0.00 0.63 0.59 84 1013.5
20260506142504 65 145 3.5 6.1 0.00 0.63 0.59 85 1013.4
20260506142004 64 143 3.5 6.1 0.00 0.64 0.59 86 1013.5
20260506141503 63 131 3.5 6.1 0.00 0.64 0.59 87 1013.5
20260506141004 63 126 2.6 6.1 0.00 0.65 0.59 87 1013.7
20260506140717 63 129 2.6 5.2 0.00 0.65 0.59 88 1013.4
20260506140215 63 135 2.6 6.1 0.00 0.66 0.59 88 1013.5
20260506135503 62 137 2.6 6.1 0.00 0.67 0.59 88 1013.8
20260506135004 62 133 1.7 3.5 0.00 0.67 0.59 88 1013.7
20260506134504 62 128 1.7 3.5 0.00 0.67 0.59 88 1013.6
20260506134003 62 124 1.7 2.6 0.00 0.67 0.59 88 1013.7
20260506133503 62 110 1.7 3.5 0.00 0.67 0.59 89 1013.8
20260506133003 62 108 1.7 3.5 0.00 0.67 0.59 88 1014.0
20260506132503 62 109 0.9 3.5 0.00 0.69 0.59 89 1014.1
20260506132003 62 114 1.7 3.5 0.00 0.69 0.59 89 1013.9
20260506131503 62 124 1.7 3.5 0.00 0.69 0.59 89 1014.2
20260506131215 62 134 1.7 5.2 0.00 0.69 0.59 89 1014.2
20260506130503 62 145 2.6 6.1 0.00 0.69 0.59 88 1014.2
20260506130216 62 144 2.6 6.1 0.00 0.69 0.59 88 1014.0
20260506125503 63 152 3.5 7.8 0.00 0.69 0.59 88 1014.3
20260506125003 62 164 4.3 7.8 0.00 0.69 0.59 87 1014.4
20260506124503 62 166 3.5 7.8 0.00 0.69 0.59 88 1014.3
20260506124004 63 157 3.5 7.8 0.00 0.69 0.59 88 1014.4
20260506123503 62 158 4.3 7.8 0.01 0.69 0.59 87 1014.3
20260506123003 62 163 4.3 8.7 0.04 0.69 0.59 87 1014.2
20260506122717 62 165 4.3 12.2 0.04 0.69 0.59 88 1014.4
20260506122003 61 168 5.2 12.2 0.04 0.69 0.59 89 1014.2
20260506121503 61 158 4.3 9.6 0.04 0.69 0.59 91 1014.2
20260506121003 61 150 3.5 9.6 0.04 0.69 0.59 92 1014.3
20260506120504 60 154 2.6 6.1 0.04 0.69 0.59 92 1014.4
20260506120005 60 149 2.6 5.2 0.04 0.69 0.59 92 1014.3
20260506115504 60 149 2.6 6.1 0.04 0.69 0.59 92 1014.3
20260506115003 60 148 2.6 6.1 0.04 0.69 0.59 92 1014.4
20260506114503 60 142 2.6 6.1 0.04 0.69 0.59 92 1014.2
20260506114005 60 141 2.6 6.1 0.04 0.69 0.59 91 1014.3
20260506113506 60 140 3.5 7.8 0.04 0.68 0.58 91 1014.4
20260506113003 60 138 4.3 7.8 0.01 0.65 0.55 90 1014.3
20260506112503 60 138 4.3 7.8 0.01 0.65 0.55 90 1014.5
20260506112003 60 142 4.3 7.8 0.01 0.66 0.55 90 1014.4
20260506111503 60 147 3.5 6.1 0.01 0.66 0.55 91 1014.4
20260506111004 60 146 2.6 5.2 0.01 0.67 0.55 91 1014.5
20260506110503 60 151 2.6 6.1 0.01 0.67 0.55 92 1014.4
20260506110004 60 146 2.6 7.0 0.01 0.67 0.55 92 1014.4
20260506105503 60 143 2.6 7.0 0.01 0.67 0.55 92 1014.5
20260506105004 60 152 3.5 7.0 0.01 0.67 0.55 92 1014.6
20260506104503 59 147 3.5 7.0 0.01 0.67 0.55 92 1014.8
20260506104003 59 138 3.5 7.0 0.01 0.67 0.55 92 1014.7
20260506103504 59 140 3.5 7.8 0.00 0.67 0.54 92 1014.4
20260506103003 59 144 4.3 9.6 0.00 0.67 0.54 92 1014.6
20260506102503 59 141 5.2 9.6 0.01 0.68 0.54 93 1014.9
20260506102003 59 135 5.2 7.8 0.01 0.68 0.54 93 1014.7
20260506101503 59 133 4.3 8.7 0.01 0.68 0.54 93 1014.6
20260506101217 59 137 5.2 9.6 0.01 0.68 0.54 93 1014.8
20260506100503 59 136 6.1 9.6 0.01 0.68 0.54 92 1014.8
20260506100005 59 132 6.1 9.6 0.01 0.68 0.54 92 1014.8
20260506095503 59 131 5.2 9.6 0.01 0.68 0.54 92 1014.8
20260506095003 59 139 4.3 8.7 0.01 0.68 0.54 92 1014.7
20260506094503 59 139 4.3 8.7 0.01 0.68 0.54 92 1014.9
20260506094003 59 135 4.3 8.7 0.01 0.68 0.54 93 1014.9
20260506093503 59 136 4.3 8.7 0.01 0.68 0.54 93 1015.0
20260506093216 59 138 5.2 9.6 0.01 0.68 0.54 93 1015.1
20260506092503 59 136 6.1 13.9 0.01 0.67 0.53 92 1014.9
20260506092004 59 133 6.1 13.9 0.02 0.67 0.53 92 1015.0
20260506091503 59 139 6.1 12.2 0.02 0.67 0.53 92 1014.9
20260506091003 59 143 6.1 12.2 0.03 0.67 0.53 93 1014.8
20260506090503 59 137 6.1 12.2 0.04 0.67 0.53 93 1015.0
20260506090214 59 137 5.2 12.2 0.04 0.67 0.53 93 1014.8
20260506085503 60 146 5.2 11.3 0.04 0.67 0.53 94 1014.9
20260506085214 60 145 5.2 11.3 0.06 0.67 0.53 94 1014.8
20260506084503 60 137 5.2 12.2 0.06 0.67 0.53 95 1014.9
20260506084003 60 137 5.2 12.2 0.07 0.67 0.53 95 1014.7
20260506083713 60 135 5.2 8.7 0.08 0.67 0.53 95 1014.5
20260506083004 60 139 5.2 9.6 0.08 0.66 0.53 95 1014.8
20260506082503 60 139 6.1 12.2 0.08 0.66 0.53 95 1014.8
20260506082003 59 138 6.1 12.2 0.08 0.65 0.52 95 1014.7
20260506081503 59 137 5.2 11.3 0.09 0.65 0.52 95 1014.4
20260506081003 59 143 4.3 11.3 0.10 0.64 0.51 96 1014.6
20260506080716 59 144 5.2 11.3 0.11 0.64 0.51 96 1014.7
20260506080214 59 145 5.2 11.3 0.11 0.63 0.50 95 1014.4
20260506073503 59 159 4.3 8.7 0.11 0.59 0.45 94 1014.6
20260506073003 59 164 5.2 8.7 0.11 0.58 0.44 94 1014.9
20260506072503 59 165 4.3 8.7 0.11 0.58 0.44 94 1014.7
20260506072213 60 163 4.3 7.8 0.12 0.58 0.44 94 1014.8
20260506071503 59 148 3.5 7.0 0.12 0.56 0.43 93 1014.8
20260506071004 59 147 2.6 7.0 0.11 0.54 0.41 93 1014.6
20260506070503 60 151 1.7 6.1 0.10 0.54 0.40 93 1014.8
20260506062004 59 114 0.9 3.5 0.15 0.44 0.31 94 1014.9
20260506061504 59 101 0.0 0.9 0.27 0.44 0.31 94 1014.6
20260506061003 59 0 0.0 0.0 0.30 0.44 0.30 94 1014.7
20260506060504 59 0 0.0 0.0 0.30 0.44 0.30 94 1014.6
20260506051003 60 104 3.5 6.1 0.00 0.13 0.00 86 1014.2
20260506050503 60 101 3.5 7.0 0.00 0.13 0.00 86 1014.0
20260506045003 60 97 2.6 7.0 0.00 0.13 0.00 86 1014.1
20260506044504 60 104 2.6 5.2 0.00 0.13 0.00 86 1014.2
20260506044003 60 107 2.6 5.2 0.00 0.13 0.00 87 1014.2
20260506043503 60 110 2.6 5.2 0.00 0.13 0.00 87 1014.3
20260506043003 60 105 2.6 5.2 0.00 0.13 0.00 86 1014.2
20260506042503 60 100 1.7 2.6 0.00 0.13 0.00 87 1014.3
20260506042215 59 106 1.7 3.5 0.00 0.13 0.00 88 1014.3
20260506041503 59 112 1.7 3.5 0.00 0.13 0.00 88 1014.3
20260506041004 58 124 1.7 3.5 0.00 0.13 0.00 89 1014.3
20260506040504 58 116 1.7 3.5 0.00 0.13 0.00 89 1014.4
20260506040004 58 100 0.9 3.5 0.00 0.13 0.00 88 1014.2
20260506035504 58 97 0.9 3.5 0.00 0.13 0.00 88 1014.4
20260506035003 59 91 1.7 5.2 0.00 0.13 0.00 88 1014.4
20260506034503 59 84 1.7 5.2 0.00 0.13 0.00 87 1014.4
20260506034004 60 82 1.7 3.5 0.00 0.13 0.00 87 1014.4
20260506033717 60 86 1.7 3.5 0.00 0.13 0.00 86 1014.5
20260506033004 59 107 1.7 3.5 0.00 0.13 0.00 87 1014.7
20260506032503 60 97 1.7 5.2 0.00 0.13 0.00 87 1014.7
20260506032003 59 97 2.6 5.2 0.00 0.13 0.00 87 1014.7
20260506031713 59 104 2.6 5.2 0.00 0.13 0.00 87 1014.9
20260506031003 59 116 1.7 2.6 0.00 0.13 0.00 88 1014.9
20260506030503 59 110 1.7 2.6 0.00 0.13 0.00 87 1014.7
20260506030217 59 110 1.7 2.6 0.00 0.13 0.00 87 1014.9
20260506025503 58 110 1.7 3.5 0.00 0.13 0.00 88 1014.7
20260506025004 58 117 1.7 6.1 0.00 0.13 0.00 88 1014.9
20260506024716 58 118 2.6 6.1 0.00 0.13 0.00 88 1014.7
20260506024003 59 107 2.6 5.2 0.00 0.13 0.00 88 1014.9
20260506023503 59 103 1.7 3.5 0.00 0.13 0.00 88 1015.1
20260506023006 59 98 2.6 7.0 0.00 0.13 0.00 87 1015.0
20260506022713 59 95 2.6 7.0 0.00 0.13 0.00 87 1015.1
20260506022216 59 90 2.6 7.0 0.00 0.13 0.00 87 1015.4
20260506021503 58 98 0.9 5.2 0.00 0.13 0.00 88 1015.4
20260506021003 58 86 0.9 2.6 0.00 0.13 0.00 89 1015.4
20260506020503 58 74 0.9 1.7 0.00 0.13 0.00 89 1015.4
20260506020004 58 76 0.9 1.7 0.00 0.13 0.00 89 1015.2
20260506015503 58 87 0.0 1.7 0.00 0.13 0.00 89 1015.3
20260506015214 58 90 0.9 1.7 0.00 0.13 0.00 89 1015.4
20260506014503 58 112 0.9 2.6 0.00 0.13 0.00 88 1015.2
20260506014215 58 117 1.7 2.6 0.00 0.13 0.00 88 1015.4
20260506013713 58 114 1.7 2.6 0.00 0.13 0.00 88 1015.2
20260506013003 58 117 1.7 2.6 0.00 0.13 0.00 88 1015.3
20260506012503 58 116 0.9 2.6 0.00 0.13 0.00 90 1015.1
20260506012003 58 66 0.0 1.7 0.00 0.13 0.00 90 1015.2
20260506011503 58 70 0.9 1.7 0.00 0.13 0.00 90 1015.3
20260506011218 58 73 0.9 1.7 0.00 0.13 0.00 89 1015.3
20260506010503 58 101 0.9 1.7 0.00 0.13 0.00 89 1015.0
20260506010004 59 107 0.9 2.6 0.00 0.13 0.00 89 1015.3
20260506005503 59 120 0.9 2.6 0.00 0.13 0.00 88 1015.2
20260506005003 59 128 1.7 3.5 0.00 0.13 0.00 87 1015.2
20260506004504 59 125 1.7 3.5 0.00 0.13 0.00 88 1015.2
20260506004004 59 137 1.7 5.2 0.00 0.13 0.00 88 1015.1
20260506003503 60 155 2.6 5.2 0.00 0.13 0.00 87 1015.3
20260506003003 60 164 1.7 5.2 0.00 0.13 0.00 87 1015.2
20260506002714 60 159 1.7 3.5 0.00 0.13 0.00 87 1015.2
20260506002003 60 144 1.7 3.5 0.00 0.13 0.00 87 1015.2